RH
92 95 93 93 99 92 92 91 89 87 92 94 94 84 77 80 89 95 99 93 95 92 93 84 97 100 87 98 88 70 54 54 47 41 30 30 56 69 69 76 77 70 79 85 100
95 98 93 97 96 94 93 90 90 94 92 94 90 80 81 82 93 97 89 93 92 90 93 92 100 100 98 92 85 74 71 43 34 30 25 32 53 68 74 78 89 89 84 94 99
96 91 92 100 95 94 99 91 89 88 88 90 88 78 95 88 96 100 91 96 86 91 80 88 98 98 88 83 86 78 60 35 27 20 17 27 62 65 74 80 78 95 99 100 95
96 92 100 99 97 98 99 94 90 93 87 90 86 91 96 96 99 100 100 98 80 78 97 99 94 98 81 90 79 78 50 32 25 22 19 36 56 72 58 56 50 58 75 98 91
97 96 100 100 96 96 100 98 92 95 90 86 87 94 98 98 89 97 96 97 86 92 99 95 98 99 77 76 78 71 45 33 26 21 18 37 63 66 62 54 49 87 100 100 100
99 100 99 98 69 99 99 98 99 99 86 79 74 86 97 95 86 89 93 92 89 76 92 98 92 99 75 69 72 57 40 33 30 24 32 53 66 58 77 71 72 99 100 98 100
93 95 91 19 62 99 100 99 74 68 72 70 72 80 88 82 83 81 87 88 88 74 78 92 90 96 94 69 61 48 41 31 30 24 29 52 68 71 83 87 100 100 100 99 98
70 34 20 30 53 48 55 48 55 68 74 77 84 89 87 76 76 75 82 90 97 83 100 99 96 98 98 63 64 51 42 45 32 27 37 43 69 98 90 90 98 98 99 98 99
18 20 26 38 38 39 47 54 54 62 67 71 75 87 78 71 65 67 76 94 95 90 98 99 99 97 91 70 73 52 52 44 36 30 36 40 68 86 96 94 97 95 99 96 99
21 24 37 41 47 36 52 55 56 58 64 60 74 66 74 72 64 68 83 99 96 97 99 98 98 97 96 64 94 94 46 39 43 34 39 62 92 88 94 93 97 97 96 97 97
29 30 40 39 54 32 46 51 51 49 48 53 57 66 72 78 90 100 99 98 98 98 97 94 98 98 85 52 53 54 34 37 38 38 43 64 95 87 87 91 98 99 97 96 98
27 36 43 44 59 45 34 46 64 71 66 55 64 74 85 96 98 97 99 99 96 98 93 96 100 88 67 46 44 37 42 50 42 37 60 93 90 84 86 88 88 95 99 99 99
29 32 41 45 54 45 55 69 86 85 80 76 99 99 99 99 99 99 98 98 98 97 77 83 88 84 62 44 41 36 34 46 46 42 48 64 78 94 88 89 89 91 98 99 99
28 32 36 39 50 55 63 67 72 88 79 90 98 100 98 98 98 98 99 98 99 87 81 86 87 82 45 41 33 37 36 42 42 39 57 37 78 43 92 94 91 89 93 94 96
26 32 33 40 50 54 71 61 65 59 89 84 92 93 94 99 99 99 94 100 93 90 83 96 94 54 44 38 29 38 42 39 35 40 50 41 53 43 88 94 85 85 87 93 88
23 29 32 35 40 55 48 56 52 76 93 90 95 91 87 95 93 99 92 83 55 64 69 66 48 46 42 46 33 44 40 42 51 48 62 39 28 23 74 79 88 80 86 92 89
14 20 25 34 38 39 51 42 81 94 60 87 92 91 93 98 89 71 87 96 92 86 98 76 56 44 36 40 35 34 33 76 75 82 69 45 34 26 25 51 65 82 87 91 90
7 11 22 34 35 36 36 74 94 81 90 63 68 66 94 89 78 76 84 97 95 85 82 85 74 60 47 38 42 34 44 70 89 63 43 39 46 30 30 61 59 61 73 88 96
6 7 15 25 32 35 42 96 97 93 76 81 70 80 81 78 80 82 96 98 99 99 89 79 69 61 41 40 31 34 41 39 44 40 42 40 31 23 46 63 62 68 82 97 100
5 5 11 22 28 26 79 88 77 64 66 70 96 84 95 92 87 89 94 96 99 97 94 93 77 66 46 33 35 31 34 42 51 53 45 39 32 35 34 53 67 69 74 83 96
6 6 8 13 17 37 96 82 62 54 63 72 89 89 92 99 96 99 100 88 88 95 90 90 65 68 44 52 45 38 40 47 47 58 61 48 40 45 59 69 70 70 74 79 90
7 43 9 11 60 84 98 80 62 61 55 55 61 80 89 89 93 96 96 86 68 86 96 89 86 78 60 52 51 40 39 44 46 48 63 49 39 72 73 69 69 72 75 79 86
9 11 9 5 71 94 65 67 68 70 63 56 63 67 73 79 86 84 75 60 68 87 99 90 83 78 64 50 50 49 45 41 47 56 56 54 37 72 72 72 70 70 72 75 80
10 71 17 26 69 80 72 75 63 61 61 58 57 63 70 68 72 77 71 62 65 76 79 90 90 81 55 58 62 56 51 41 40 47 53 53 44 85 82 76 70 69 68 69 71
15 76 43 76 76 94 87 97 92 89 71 56 54 64 80 78 68 76 69 74 67 76 78 86 97 94 91 90 72 66 54 47 44 41 42 35 53 64 79 76 69 66 64 63 63
21 39 60 98 92 77 76 96 97 93 82 75 65 72 78 81 81 87 79 86 96 83 93 86 98 92 85 88 73 69 62 58 52 44 44 55 59 69 72 68 66 63 59 58 58
33 36 22 82 83 73 89 89 83 81 60 70 77 69 73 56 50 52 56 61 72 91 99 98 98 96 92 90 83 77 74 66 60 60 56 62 57 74 77 68 66 61 58 56 54
Wind_Speed
20 20 21 21 21 20 21 22 20 20 21 21 21 22 21 20 15 20 19 22 21 9 14 22 30 28 37 22 22 7 3 7 11 11 7 10 5 8 8 19 6 7 13 18 31
21 21 22 22 21 21 22 23 20 21 21 18 19 19 15 18 13 14 20 15 18 18 20 20 23 27 29 23 19 6 4 8 5 8 9 11 7 15 8 10 5 9 13 30 33
23 22 23 22 21 21 22 22 20 23 18 16 18 14 13 10 6 2 13 16 19 17 19 20 21 27 22 22 11 10 7 3 5 17 22 12 8 11 19 4 16 24 31 37 35
24 23 23 22 22 22 22 22 20 19 15 17 13 9 10 6 2 5 7 10 17 21 20 19 21 9 15 15 21 9 3 7 8 14 17 10 17 8 23 6 22 29 42 42 39
24 24 23 22 22 22 22 21 19 15 13 11 8 6 9 8 4 4 12 6 8 8 20 14 17 6 17 14 19 5 7 6 4 17 19 20 13 11 13 7 23 32 38 36 35
26 24 21 21 21 21 21 18 16 13 7 6 1 2 6 3 5 5 4 5 4 2 17 18 16 5 14 17 18 12 8 4 3 11 12 10 5 11 6 19 32 38 37 33 33
23 21 20 22 22 21 19 15 8 4 3 3 4 2 4 5 2 7 2 5 6 4 15 18 18 7 6 17 16 18 7 3 2 6 5 18 4 4 18 26 32 32 32 30 30
20 21 24 24 21 17 14 5 2 2 3 5 4 1 3 4 7 9 5 3 4 3 12 19 25 16 7 12 13 7 6 6 3 5 3 2 5 2 25 34 30 31 31 30 28
19 25 24 22 16 14 6 4 2 3 6 6 4 1 1 6 14 10 4 2 3 5 6 11 20 8 4 23 6 2 14 6 4 1 4 3 4 9 21 25 29 29 31 31 29
23 23 21 20 15 8 9 13 11 4 3 1 5 1 1 8 8 7 4 2 3 12 8 10 6 2 7 17 13 12 15 5 8 5 4 5 4 13 21 25 28 27 29 31 31
24 21 19 14 15 5 8 4 1 4 11 5 6 6 6 11 0 3 5 2 9 5 4 7 5 8 23 27 17 19 18 12 3 1 6 2 9 15 16 16 16 19 23 27 30
22 20 18 11 13 11 4 4 5 4 1 15 7 3 12 8 2 3 7 6 7 6 12 6 5 8 14 17 15 9 8 4 3 4 6 5 8 12 14 18 24 25 25 27 27
24 22 15 7 9 9 9 7 4 3 2 8 7 4 13 10 4 3 9 7 4 11 9 9 1 2 9 14 13 4 17 6 8 4 7 7 3 4 2 8 11 16 17 22 30
25 25 16 6 6 9 7 4 0 2 2 13 10 4 12 13 4 3 10 7 6 14 13 5 3 7 10 12 18 10 8 7 9 6 5 3 4 2 3 5 8 15 21 26 30
25 24 16 14 6 9 4 4 3 2 4 20 9 18 28 5 4 5 16 7 7 10 5 1 6 14 11 3 8 6 6 8 4 6 5 4 5 3 5 9 11 14 21 29 33
23 22 21 14 14 7 6 4 3 5 7 11 9 14 14 13 2 6 8 7 12 16 15 7 5 4 2 5 4 8 9 9 6 4 2 2 3 4 6 7 6 16 22 29 34
22 26 23 21 16 9 4 4 5 7 9 13 7 13 10 11 11 10 10 13 6 10 9 9 5 5 4 8 7 5 15 3 4 2 4 5 1 6 5 4 5 17 25 29 33
13 25 24 24 14 12 3 7 12 4 5 7 5 11 9 13 10 16 7 8 14 9 7 5 4 5 6 4 7 3 5 6 6 5 5 2 6 4 3 11 11 4 16 20 25
7 23 30 19 20 9 12 8 2 3 6 9 11 7 8 7 6 6 8 9 9 11 4 4 4 4 3 1 3 5 3 5 7 2 3 3 5 3 2 7 15 15 11 7 10
4 8 30 22 10 10 10 7 2 4 6 3 4 4 8 12 7 7 8 6 8 6 6 4 5 5 5 2 5 4 6 6 2 5 5 3 4 5 5 2 5 9 11 7 2
10 4 27 6 14 21 5 4 3 8 8 5 3 4 2 4 4 6 5 5 10 10 9 5 3 4 0 4 2 2 3 5 6 4 6 4 6 1 3 2 2 5 6 7 3
14 5 29 20 9 6 3 3 8 8 14 5 3 3 3 5 6 4 4 3 13 8 4 5 1 3 2 3 1 2 3 4 5 5 0 3 5 2 4 5 5 6 5 5 4
5 6 26 9 4 3 2 3 4 9 6 7 6 5 3 4 4 2 1 1 7 5 2 5 3 3 6 6 3 2 2 3 4 3 6 5 5 2 5 6 7 7 7 6 6
5 4 10 21 10 5 2 3 5 9 4 5 5 4 4 5 5 3 3 2 6 10 6 1 0 1 7 1 2 4 3 3 4 2 4 5 3 6 7 6 6 8 7 8 8
8 1 3 4 7 4 3 0 3 6 8 11 4 8 3 4 4 4 2 5 3 13 6 3 2 1 1 1 2 1 3 5 6 4 4 4 7 4 9 7 9 9 8 7 7
6 3 5 4 1 3 5 2 1 3 2 5 4 4 4 4 3 3 2 5 3 6 5 5 1 1 2 4 3 4 6 6 5 5 3 3 6 4 11 14 10 9 8 7 6
13 8 3 4 3 3 2 3 3 2 1 2 2 2 3 2 5 8 6 7 2 2 4 2 2 2 4 2 5 5 6 6 3 2 6 8 4 9 5 11 15 12 9 6 4
Wind_Direction
321 319 314 310 314 318 319 313 313 312 305 302 301 293 292 289 280 239 232 237 216 191 206 211 214 178 182 200 179 173 121 186 181 157 181 160 121 142 137 138 142 177 166 172 161
319 317 312 312 317 320 320 318 317 315 306 310 304 297 290 293 295 241 229 236 225 236 239 230 202 185 180 189 178 171 167 190 186 155 168 176 150 142 134 137 90 120 155 161 159
325 319 311 316 318 319 318 317 315 316 311 305 309 306 297 279 267 256 234 229 216 215 226 238 213 180 178 182 169 188 213 189 193 177 174 152 141 159 143 224 183 162 152 157 163
326 319 317 320 319 317 317 318 319 318 316 313 314 305 303 177 156 72 162 207 216 218 209 193 218 184 179 181 175 159 241 178 180 177 163 158 153 156 167 184 193 176 166 163 167
327 322 323 321 318 315 318 320 321 318 311 324 309 324 62 84 73 33 17 148 159 177 209 199 201 244 177 178 167 151 149 204 260 176 177 151 164 181 189 155 171 159 159 162 163
334 329 324 320 319 320 320 324 322 320 319 328 252 294 72 67 64 44 2 18 356 200 177 207 214 212 221 168 170 156 130 175 174 163 154 130 126 150 151 157 158 157 167 165 165
332 332 330 331 330 326 326 325 334 5 16 37 125 109 65 49 53 21 329 5 313 231 164 197 203 225 7 157 154 151 108 130 162 160 145 122 70 144 153 161 149 159 167 170 169
347 347 339 340 340 346 345 9 71 57 51 57 70 72 50 27 346 333 317 337 19 220 154 181 195 208 252 145 160 125 91 133 234 142 165 100 208 109 158 156 157 163 168 176 176
355 351 343 349 351 354 15 67 110 132 89 68 33 32 45 17 336 317 309 300 353 163 153 163 162 204 288 155 145 248 163 158 128 17 139 106 162 162 161 159 161 167 170 179 181
356 358 347 357 1 9 114 103 86 104 176 12 35 16 177 346 338 299 219 342 117 145 141 130 77 71 242 162 168 178 158 144 145 189 59 88 111 159 166 165 167 169 173 180 186
2 5 351 5 358 32 173 182 194 104 67 60 15 284 332 335 49 127 170 29 136 177 138 140 118 205 167 174 151 164 164 150 43 80 87 141 139 172 170 157 153 168 179 184 187
10 9 355 6 5 360 200 186 108 121 3 35 351 39 343 346 235 269 262 164 164 156 126 116 192 216 206 160 135 124 118 108 60 61 92 47 141 169 173 180 178 176 184 185 183
16 14 2 13 21 30 75 95 97 17 63 28 357 325 342 2 328 203 171 181 174 143 156 124 76 181 194 146 140 113 164 158 136 110 54 108 41 148 211 114 153 194 195 190 190
15 16 13 24 26 27 48 91 186 26 44 356 351 355 334 321 274 141 179 166 201 136 104 67 95 230 145 148 150 150 157 109 117 98 147 16 196 223 157 152 189 195 203 201 197
16 19 19 45 57 43 41 97 79 344 28 332 321 333 328 225 309 123 156 214 140 133 98 138 169 146 124 147 136 161 147 128 106 95 102 322 84 218 136 198 206 209 213 209 205
24 20 28 40 39 53 57 59 355 40 8 340 320 338 359 0 42 150 129 116 103 81 79 77 161 54 77 38 88 146 93 52 57 71 104 319 111 250 189 191 186 209 214 215 211
30 21 24 35 32 26 27 356 34 70 327 336 337 338 350 6 22 30 63 50 71 106 82 46 17 349 60 73 4 108 135 92 41 55 195 341 213 238 201 218 197 198 212 216 216
7 24 36 31 25 23 41 60 59 278 316 325 326 326 31 1 39 24 41 44 15 33 83 109 87 3 344 133 162 118 133 127 152 165 218 9 224 245 340 54 57 98 228 227 226
21 20 30 34 36 13 63 54 133 301 300 320 315 18 351 9 21 58 41 26 14 5 83 108 53 311 57 131 123 195 97 152 106 67 84 250 293 287 144 43 40 42 74 107 199
14 16 22 37 22 34 63 104 107 354 322 328 59 33 10 339 42 33 21 356 342 8 335 0 84 348 315 54 35 143 148 97 44 136 178 252 253 223 201 125 36 28 25 30 136
29 42 359 311 42 58 78 67 344 353 14 36 11 20 359 351 57 32 3 36 356 335 325 4 59 288 359 40 172 88 130 64 111 131 167 165 248 238 156 93 64 46 30 18 18
32 44 6 39 54 50 49 1 359 341 13 32 100 83 45 3 27 62 78 24 353 319 14 17 101 54 334 277 298 69 156 130 139 208 219 166 257 24 101 81 89 68 51 46 49
51 34 25 57 76 5 43 37 47 11 9 13 27 19 11 44 102 49 360 350 15 50 35 351 356 77 355 346 7 222 185 113 106 91 192 147 252 146 125 94 84 86 67 70 74
44 24 22 51 67 104 89 12 6 15 66 7 14 16 9 35 15 101 354 325 351 9 12 335 118 208 208 261 146 184 174 156 121 135 161 230 199 216 192 158 128 107 99 85 78
42 39 28 341 19 59 65 90 16 6 357 22 50 37 350 28 18 23 337 330 39 6 7 38 193 322 288 7 248 178 178 180 178 174 171 245 197 202 180 164 152 141 132 114 90
66 60 76 72 35 51 358 312 98 297 69 339 81 328 38 97 191 259 18 32 34 332 18 340 179 346 287 331 329 217 201 209 227 212 224 157 255 139 143 150 154 155 145 122 101
40 52 55 359 23 65 269 202 224 170 276 151 203 71 35 340 297 285 283 285 273 344 334 48 93 53 256 310 308 300 230 192 181 250 159 203 193 151 170 173 168 165 157 137 111